DMSP 5D-2 F11 DEB, 28326

Orbit data source: Space-Track

DMSP 5D-2 F11 DEB, 28326 is space debris in SSO originally from a launch on Thu, 28 Nov 1991 UTC launched from the Air Force Western Test Range (AFWTR). Debris objects in space refer to the collection of defunct objects orbiting the Earth. Examples of debris include non-operational satellites, rocket bodies, and fragments generated from explosions, collisions, or faulty payload assembly.

Loading next visibility...
Identifier
28326, 1991-082AP
Orbit
SSO
Country
Flag of USUS
Related business
Manufacturer
Unknown
Mission
Spacecraft
Bus & Motor
Unknown
Mass
Unknown
Launch date (UTC)
1991-11-28 (35 years ago)
Launch vehicle
Unknown
Launch site
Air Force Western Test Range (AFWTR)
Object type
Payload
Rocket body
Debris
Shape & HBR
Unknown shape, 0.1 m
Radar Cross Section
Small (<0.1 m²)

Expand to show TLE details & history
Last TLE update: 3 days ago

TLE from 3 days ago
0 DMSP 5D-2 F11 DEB
1 28326U 91082AP  26206.25436724  .00007053  00000-0  19028-2 0  9997
2 28326  98.8147 314.4720 0043255 247.7350 111.9252 14.47640205148533
Epoch: 2026-07-25T06:06Z
TLE epoch observation values (Epoch: 2026-07-25T06:06:17.329Z)
Latitude
0.00003°
Longitude
-80.0695°
Altitude
747.918 km
Speed
7.475 km/s
True Right ascension
20h 57m 53s
True Declination
0° 00' 00"
Sunlit
Object was in full shadow at epoch
Visualization orbit readout
Latitude
Unknown
Longitude
Unknown
Altitude
Unknown
Speed
Unknown
Apparent Right ascension
Unknown
Apparent Declination
Unknown
Sunlit
N/A
Visualization observer readout
Local Sidereal Time
16:10:32
Azimuth
Unknown
Elevation
Unknown
Doppler factor
Unknown
Orbital elements
Apogee altitude
761.241 km
Perigee altitude
699.745 km
Semi-major axis
7,108.63 km
Eccentricity
0.00433
Inclination
98.8147°
RAAN
314.472°
Arg. of periapsis
247.735°
True anomaly
112.38408°
Mean anomaly
111.9252°
Eccentric anomaly
112.15474°
Mean motion
3.6213 °/min
Orbital period
99.41 mins
BSTAR
0.0019028
Loading maneuver chart data...
Computing Atmospheric mass density...

Documentation

Showing up to 5 results
|